Time,TemperatureF,DewpointF,PressureIn,WindDirection,WindDirectionDegrees,WindSpeedMPH,WindSpeedGustMPH,Humidity,HourlyPrecipIn,Conditions,Clouds,dailyrainin,SoftwareType,DateUTC
2013-01-27 00:13:00,39.9,39.0,30.02,WSW,253,0.0,2.0,95,0.00,,,0.00,weatherlink.com 1.10,2013-01-27 08:13:00,
2013-01-27 00:28:00,39.3,38.0,30.02,SSW,212,0.0,2.0,96,0.00,,,0.00,weatherlink.com 1.10,2013-01-27 08:28:00,
2013-01-27 00:43:00,39.1,38.0,30.02,SW,235,2.0,2.0,96,0.00,,,0.00,weatherlink.com 1.10,2013-01-27 08:43:00,
2013-01-27 00:58:00,39.0,38.0,30.02,SW,235,0.0,3.0,96,0.00,,,0.00,weatherlink.com 1.10,2013-01-27 08:58:00,
2013-01-27 01:13:00,38.5,38.0,30.02,South,184,0.0,1.0,96,0.00,,,0.00,weatherlink.com 1.10,2013-01-27 09:13:00,
2013-01-27 01:28:00,37.9,37.0,30.02,South,189,0.0,1.0,97,0.00,,,0.00,weatherlink.com 1.10,2013-01-27 09:28:00,
2013-01-27 01:43:00,37.4,37.0,30.02,South,189,0.0,0.0,97,0.00,,,0.00,weatherlink.com 1.10,2013-01-27 09:43:00,
2013-01-27 01:58:00,37.2,37.0,30.02,SSW,205,0.0,1.0,98,0.00,,,0.00,weatherlink.com 1.10,2013-01-27 09:58:00,
2013-01-27 02:13:00,37.1,37.0,30.02,SSW,207,0.0,1.0,98,0.00,,,0.00,weatherlink.com 1.10,2013-01-27 10:13:00,
2013-01-27 02:28:00,36.7,36.0,30.02,SSE,158,1.0,1.0,97,0.00,,,0.00,weatherlink.com 1.10,2013-01-27 10:28:00,
2013-01-27 02:43:00,36.5,36.0,30.02,WSW,249,0.0,1.0,98,0.00,,,0.00,weatherlink.com 1.10,2013-01-27 10:43:00,
2013-01-27 02:58:00,36.8,36.0,30.03,SW,232,0.0,2.0,98,0.00,,,0.00,weatherlink.com 1.10,2013-01-27 10:58:00,
2013-01-27 03:13:00,36.4,36.0,30.02,WSW,248,0.0,1.0,98,0.00,,,0.00,weatherlink.com 1.10,2013-01-27 11:13:00,
2013-01-27 03:28:00,36.0,36.0,30.02,WSW,248,0.0,0.0,98,0.00,,,0.00,weatherlink.com 1.10,2013-01-27 11:28:00,
2013-01-27 03:43:00,36.1,36.0,30.02,WSW,248,0.0,0.0,98,0.00,,,0.00,weatherlink.com 1.10,2013-01-27 11:43:00,
2013-01-27 03:58:00,36.2,36.0,30.02,WSW,245,0.0,0.0,98,0.00,,,0.00,weatherlink.com 1.10,2013-01-27 11:58:00,
2013-01-27 04:13:00,37.0,37.0,30.02,SW,217,0.0,1.0,99,0.00,,,0.00,weatherlink.com 1.10,2013-01-27 12:13:00,
2013-01-27 04:28:00,37.1,37.0,30.02,SSW,207,0.0,0.0,98,0.00,,,0.00,weatherlink.com 1.10,2013-01-27 12:28:00,
2013-01-27 04:43:00,37.2,37.0,30.02,SW,215,0.0,0.0,98,0.00,,,0.00,weatherlink.com 1.10,2013-01-27 12:43:00,
2013-01-27 04:58:00,37.1,37.0,30.02,SSE,156,0.0,0.0,98,0.00,,,0.00,weatherlink.com 1.10,2013-01-27 12:58:00,
2013-01-27 05:13:00,37.4,37.0,30.02,SE,143,0.0,1.0,98,0.00,,,0.00,weatherlink.com 1.10,2013-01-27 13:13:00,
2013-01-27 05:28:00,37.6,37.0,30.02,SSE,150,0.0,1.0,98,0.00,,,0.00,weatherlink.com 1.10,2013-01-27 13:28:00,
2013-01-27 05:43:00,37.8,37.0,30.02,WNW,291,0.0,2.0,98,0.00,,,0.00,weatherlink.com 1.10,2013-01-27 13:43:00,
2013-01-27 05:58:00,37.8,37.0,30.02,SSW,203,0.0,0.0,98,0.00,,,0.00,weatherlink.com 1.10,2013-01-27 13:58:00,
2013-01-27 06:13:00,37.8,37.0,30.02,WSW,243,0.0,0.0,98,0.00,,,0.00,weatherlink.com 1.10,2013-01-27 14:13:00,
2013-01-27 06:28:00,37.4,37.0,30.02,WSW,243,0.0,0.0,98,0.00,,,0.00,weatherlink.com 1.10,2013-01-27 14:28:00,
2013-01-27 06:43:00,37.0,37.0,30.02,SW,235,0.0,0.0,98,0.00,,,0.00,weatherlink.com 1.10,2013-01-27 14:43:00,
2013-01-27 06:58:00,36.3,36.0,30.02,SW,235,0.0,0.0,98,0.00,,,0.00,weatherlink.com 1.10,2013-01-27 14:58:00,
2013-01-27 07:13:00,35.5,35.0,30.02,SW,233,0.0,0.0,98,0.00,,,0.00,weatherlink.com 1.10,2013-01-27 15:13:00,
2013-01-27 07:28:00,35.7,36.0,30.02,West,267,0.0,3.0,99,0.00,,,0.00,weatherlink.com 1.10,2013-01-27 15:28:00,
2013-01-27 07:43:00,36.2,36.0,30.02,WSW,237,0.0,1.0,99,0.00,,,0.00,weatherlink.com 1.10,2013-01-27 15:43:00,
2013-01-27 07:58:00,36.8,37.0,30.02,SSW,207,0.0,1.0,99,0.00,,,0.00,weatherlink.com 1.10,2013-01-27 15:58:00,
2013-01-27 08:13:00,37.6,37.0,30.03,SW,218,0.0,1.0,98,0.00,,,0.00,weatherlink.com 1.10,2013-01-27 16:13:00,
2013-01-27 08:28:00,38.0,38.0,30.03,West,269,0.0,4.0,98,0.00,,,0.00,weatherlink.com 1.10,2013-01-27 16:28:00,
2013-01-27 08:43:00,38.2,38.0,30.03,SSW,211,0.0,3.0,98,0.00,,,0.00,weatherlink.com 1.10,2013-01-27 16:43:00,
2013-01-27 08:58:00,38.4,38.0,30.03,WSW,248,0.0,2.0,97,0.00,,,0.00,weatherlink.com 1.10,2013-01-27 16:58:00,
2013-01-27 09:13:00,38.5,38.0,30.03,SSW,208,0.0,3.0,97,0.00,,,0.00,weatherlink.com 1.10,2013-01-27 17:13:00,
2013-01-27 09:28:00,38.5,38.0,30.03,WSW,243,0.0,3.0,96,0.00,,,0.00,weatherlink.com 1.10,2013-01-27 17:28:00,
2013-01-27 09:43:00,38.7,38.0,30.04,SW,218,0.0,3.0,96,0.00,,,0.00,weatherlink.com 1.10,2013-01-27 17:43:00,
2013-01-27 09:58:00,39.2,38.0,30.03,SSE,153,1.0,3.0,96,0.00,,,0.00,weatherlink.com 1.10,2013-01-27 17:58:00,
2013-01-27 10:13:00,39.8,39.0,30.03,WSW,245,0.0,2.0,96,0.00,,,0.00,weatherlink.com 1.10,2013-01-27 18:13:00,
2013-01-27 10:28:00,40.6,40.0,30.03,WSW,239,0.0,3.0,96,0.00,,,0.00,weatherlink.com 1.10,2013-01-27 18:28:00,
2013-01-27 10:43:00,41.3,40.0,30.03,ENE,65,0.0,3.0,95,0.00,,,0.00,weatherlink.com 1.10,2013-01-27 18:43:00,
2013-01-27 10:59:00,41.9,40.0,30.03,SW,229,0.0,5.0,94,0.00,,,0.00,weatherlink.com 1.10,2013-01-27 18:59:00,
2013-01-27 11:14:00,42.4,41.0,30.02,SSE,166,5.0,5.0,93,0.00,,,0.00,weatherlink.com 1.10,2013-01-27 19:14:00,
2013-01-27 11:29:00,42.4,40.0,30.02,SSW,207,1.0,8.0,92,0.00,,,0.00,weatherlink.com 1.10,2013-01-27 19:29:00,
2013-01-27 11:44:00,42.4,41.0,30.01,WNW,297,3.0,9.0,93,0.00,,,0.00,weatherlink.com 1.10,2013-01-27 19:44:00,
2013-01-27 11:59:00,42.5,41.0,30.01,ESE,117,2.0,6.0,93,0.00,,,0.00,weatherlink.com 1.10,2013-01-27 19:59:00,
2013-01-27 12:14:00,42.4,41.0,30.00,WNW,283,1.0,6.0,93,0.00,,,0.00,weatherlink.com 1.10,2013-01-27 20:14:00,
2013-01-27 12:29:00,42.4,40.0,29.99,SW,226,5.0,8.0,92,0.00,,,0.00,weatherlink.com 1.10,2013-01-27 20:29:00,
2013-01-27 12:44:00,42.6,41.0,29.98,SE,140,0.0,8.0,92,0.00,,,0.00,weatherlink.com 1.10,2013-01-27 20:44:00,
2013-01-27 12:59:00,42.7,41.0,29.97,West,267,0.0,6.0,92,0.00,,,0.00,weatherlink.com 1.10,2013-01-27 20:59:00,
2013-01-27 13:14:00,42.4,41.0,29.97,South,177,1.0,8.0,93,0.00,,,0.00,weatherlink.com 1.10,2013-01-27 21:14:00,
2013-01-27 13:29:00,42.4,40.0,29.97,SW,236,2.0,9.0,92,0.00,,,0.00,weatherlink.com 1.10,2013-01-27 21:29:00,
2013-01-27 13:44:00,42.4,40.0,29.97,SW,224,0.0,5.0,92,0.00,,,0.00,weatherlink.com 1.10,2013-01-27 21:44:00,
2013-01-27 13:59:00,42.3,40.0,29.96,SW,236,0.0,6.0,92,0.00,,,0.00,weatherlink.com 1.10,2013-01-27 21:59:00,
2013-01-27 14:14:00,42.4,40.0,29.97,SSW,207,1.0,7.0,92,0.00,,,0.00,weatherlink.com 1.10,2013-01-27 22:14:00,
2013-01-27 14:29:00,42.2,40.0,29.97,WSW,240,2.0,12.0,92,0.00,,,0.00,weatherlink.com 1.10,2013-01-27 22:29:00,
2013-01-27 14:44:00,42.2,40.0,29.97,ESE,113,1.0,7.0,92,0.00,,,0.00,weatherlink.com 1.10,2013-01-27 22:44:00,
2013-01-27 14:59:00,42.2,40.0,29.97,SSE,165,5.0,7.0,91,0.00,,,0.00,weatherlink.com 1.10,2013-01-27 22:59:00,
2013-01-27 15:14:00,42.2,40.0,29.97,SW,219,1.0,7.0,92,0.00,,,0.00,weatherlink.com 1.10,2013-01-27 23:14:00,
2013-01-27 15:29:00,42.1,40.0,29.97,SSW,201,1.0,5.0,92,0.00,,,0.00,weatherlink.com 1.10,2013-01-27 23:29:00,
2013-01-27 15:44:00,42.0,40.0,29.97,SSE,152,1.0,4.0,91,0.00,,,0.00,weatherlink.com 1.10,2013-01-27 23:44:00,
2013-01-27 15:59:00,42.0,40.0,29.97,WSW,253,0.0,4.0,92,0.00,,,0.00,weatherlink.com 1.10,2013-01-27 23:59:00,
2013-01-27 16:14:00,42.1,40.0,29.97,SE,128,0.0,4.0,92,0.00,,,0.00,weatherlink.com 1.10,2013-01-28 00:14:00,
2013-01-27 16:29:00,42.1,40.0,29.97,SSW,210,1.0,5.0,92,0.00,,,0.00,weatherlink.com 1.10,2013-01-28 00:29:00,
2013-01-27 16:44:00,42.1,40.0,29.97,East,101,1.0,5.0,92,0.00,,,0.00,weatherlink.com 1.10,2013-01-28 00:44:00,
2013-01-27 16:59:00,42.0,40.0,29.97,SW,235,0.0,4.0,91,0.00,,,0.00,weatherlink.com 1.10,2013-01-28 00:59:00,
2013-01-27 17:14:00,42.0,40.0,29.97,South,190,0.0,2.0,92,0.00,,,0.00,weatherlink.com 1.10,2013-01-28 01:14:00,
2013-01-27 17:29:00,41.9,40.0,29.97,WSW,248,0.0,3.0,92,0.00,,,0.00,weatherlink.com 1.10,2013-01-28 01:29:00,
2013-01-27 17:44:00,41.8,39.0,29.97,SW,217,0.0,1.0,91,0.00,,,0.00,weatherlink.com 1.10,2013-01-28 01:44:00,
2013-01-27 17:59:00,41.7,40.0,29.97,WSW,245,1.0,1.0,92,0.00,,,0.00,weatherlink.com 1.10,2013-01-28 01:59:00,
2013-01-27 18:14:00,41.7,39.0,29.97,SE,142,0.0,4.0,91,0.00,,,0.00,weatherlink.com 1.10,2013-01-28 02:14:00,
2013-01-27 18:29:00,41.6,39.0,29.97,SW,229,0.0,2.0,91,0.00,,,0.00,weatherlink.com 1.10,2013-01-28 02:29:00,
2013-01-27 18:44:00,41.4,39.0,29.97,SW,217,0.0,2.0,92,0.00,,,0.00,weatherlink.com 1.10,2013-01-28 02:44:00,
2013-01-27 18:59:00,41.2,39.0,29.97,SSW,200,1.0,2.0,92,0.00,,,0.00,weatherlink.com 1.10,2013-01-28 02:59:00,
2013-01-27 19:14:00,40.8,39.0,29.98,SSW,205,0.0,1.0,92,0.00,,,0.00,weatherlink.com 1.10,2013-01-28 03:14:00,
2013-01-27 19:29:00,40.4,39.0,29.98,SW,219,0.0,1.0,93,0.00,,,0.00,weatherlink.com 1.10,2013-01-28 03:29:00,
2013-01-27 19:44:00,40.3,39.0,29.98,SSW,208,0.0,2.0,94,0.00,,,0.00,weatherlink.com 1.10,2013-01-28 03:44:00,
2013-01-27 19:59:00,40.3,39.0,29.98,East,85,0.0,1.0,94,0.00,,,0.00,weatherlink.com 1.10,2013-01-28 03:59:00,
2013-01-27 20:14:00,40.3,39.0,29.98,SW,225,0.0,5.0,94,0.00,,,0.00,weatherlink.com 1.10,2013-01-28 04:14:00,
2013-01-27 20:29:00,40.3,39.0,29.98,SW,229,0.0,4.0,94,0.00,,,0.00,weatherlink.com 1.10,2013-01-28 04:29:00,
2013-01-27 20:44:00,40.4,39.0,29.98,SW,226,0.0,3.0,94,0.00,,,0.00,weatherlink.com 1.10,2013-01-28 04:44:00,
2013-01-27 20:59:00,40.3,39.0,29.97,SSW,200,0.0,1.0,94,0.00,,,0.00,weatherlink.com 1.10,2013-01-28 04:59:00,
2013-01-27 21:14:00,40.3,39.0,29.98,South,191,0.0,3.0,95,0.00,,,0.00,weatherlink.com 1.10,2013-01-28 05:14:00,
2013-01-27 21:29:00,40.5,39.0,29.98,SW,225,0.0,2.0,95,0.00,,,0.00,weatherlink.com 1.10,2013-01-28 05:29:00,
2013-01-27 21:44:00,40.6,39.0,29.98,SW,224,0.0,1.0,94,0.00,,,0.00,weatherlink.com 1.10,2013-01-28 05:44:00,
2013-01-27 21:59:00,40.7,39.0,29.98,SW,225,0.0,1.0,94,0.00,,,0.00,weatherlink.com 1.10,2013-01-28 05:59:00,
2013-01-27 22:14:00,40.7,39.0,29.97,SW,221,0.0,3.0,95,0.00,,,0.00,weatherlink.com 1.10,2013-01-28 06:14:00,
2013-01-27 22:29:00,40.8,39.0,29.98,WSW,237,0.0,2.0,94,0.00,,,0.00,weatherlink.com 1.10,2013-01-28 06:29:00,
2013-01-27 22:44:00,40.9,39.0,29.98,SW,219,0.0,1.0,94,0.00,,,0.00,weatherlink.com 1.10,2013-01-28 06:44:00,
2013-01-27 22:59:00,40.8,39.0,29.98,WSW,250,0.0,1.0,94,0.00,,,0.00,weatherlink.com 1.10,2013-01-28 06:59:00,
2013-01-27 23:14:00,40.8,39.0,29.98,SSE,158,0.0,1.0,94,0.00,,,0.00,weatherlink.com 1.10,2013-01-28 07:14:00,
2013-01-27 23:29:00,40.5,39.0,29.98,WSW,239,0.0,1.0,93,0.00,,,0.00,weatherlink.com 1.10,2013-01-28 07:29:00,
2013-01-27 23:44:00,40.4,39.0,29.99,West,271,0.0,1.0,93,0.00,,,0.00,weatherlink.com 1.10,2013-01-28 07:44:00,
2013-01-27 23:59:00,40.4,39.0,29.99,West,271,0.0,0.0,93,0.00,,,0.00,weatherlink.com 1.10,2013-01-28 07:59:00,